Theta_e
336 335 335 334 336 338 339 338 336 335 337 336 333 332 330 322 312 311 315 317 320 323 328 332 333 334 335 334 333 333 332 332 332 332 332 332 332 332 332 332 332 332 331 331 331 329 329 329 329 329 329 329 328 327 326 325 325 325 324 324 323 321 320
336 335 335 336 336 337 338 337 336 336 337 337 335 333 332 329 320 312 312 316 318 319 323 328 331 332 334 333 332 332 332 331 332 332 332 332 332 332 332 332 332 332 332 332 331 330 330 329 329 328 328 328 328 327 326 325 325 325 325 325 324 322 321
335 335 336 337 336 337 338 337 336 336 336 337 336 334 333 333 329 320 314 314 315 315 318 325 330 331 332 332 332 332 331 331 331 332 332 332 333 333 332 332 332 332 332 332 331 331 330 330 329 329 328 328 327 327 326 326 326 326 325 325 324 323 321
334 335 335 336 336 336 337 337 336 335 336 337 336 336 334 334 333 329 321 315 314 315 317 323 328 329 330 330 331 332 332 331 331 332 332 332 333 333 333 333 332 332 332 331 331 330 330 330 329 329 329 328 328 328 328 327 327 327 326 325 324 323 322
333 335 334 335 335 336 336 337 336 336 337 337 337 336 335 334 334 333 330 321 316 316 318 322 327 328 329 329 330 331 332 331 331 331 331 331 332 333 333 333 333 332 332 331 330 330 330 330 330 329 329 329 329 329 329 328 327 327 326 325 325 324 322
332 334 335 335 335 335 336 336 335 336 337 337 337 336 335 335 333 333 332 327 320 317 318 321 325 328 329 330 329 331 332 332 332 331 331 331 331 332 332 333 332 332 332 332 331 330 330 331 330 330 330 330 329 329 328 328 327 327 327 326 325 324 323
332 332 334 335 334 334 335 334 333 334 335 334 334 334 334 334 333 332 331 329 325 320 318 318 322 326 328 329 329 330 331 332 333 332 331 331 331 331 332 333 333 332 332 332 331 331 330 331 331 331 330 330 330 328 328 327 327 327 327 326 326 325 324
331 331 333 334 333 334 334 334 333 332 333 332 331 332 334 334 333 332 331 330 328 325 321 318 319 323 326 328 329 331 331 330 333 334 333 331 331 331 332 333 333 333 332 332 331 331 331 331 331 331 331 331 329 328 328 327 328 328 328 327 327 326 324
330 331 333 334 333 333 333 333 332 331 330 330 331 333 333 334 333 332 331 331 329 329 326 321 320 322 324 325 328 330 331 329 331 334 334 333 332 332 332 333 333 332 332 332 331 331 331 331 331 332 331 330 329 328 328 328 328 328 328 328 327 326 325
331 331 332 333 332 331 332 333 332 331 330 330 331 333 334 334 334 333 332 331 331 331 330 326 322 322 323 324 326 329 329 328 329 332 334 334 333 332 332 332 333 332 332 332 332 332 332 332 332 332 331 329 329 328 328 328 328 328 328 328 327 326 325
330 332 332 332 332 331 332 333 333 332 331 331 331 332 334 335 335 334 332 332 332 332 332 330 327 325 325 327 328 329 329 328 329 331 333 335 334 333 333 332 333 333 332 332 333 333 333 332 332 332 331 330 329 328 328 329 328 328 328 328 328 327 325
331 331 333 333 333 332 332 331 332 333 331 331 331 332 334 335 335 335 334 332 332 332 333 332 330 329 330 330 331 331 330 329 328 329 332 334 335 334 333 333 333 333 333 333 333 333 333 333 333 332 332 331 330 329 328 329 328 328 327 327 327 327 325
333 332 333 334 334 333 332 331 332 332 332 331 330 332 334 335 336 336 334 333 332 332 333 333 332 332 332 333 333 332 332 330 329 329 331 334 335 335 334 333 333 333 333 333 333 333 333 332 332 333 332 332 331 330 329 329 329 328 327 327 327 327 325
333 333 333 334 335 334 333 332 332 332 332 331 330 331 333 334 335 336 335 334 333 332 332 333 333 333 334 334 334 333 333 332 331 329 330 333 334 335 335 333 333 333 333 333 333 333 333 332 332 333 333 332 332 331 330 330 329 328 328 327 327 326 325
333 334 334 334 335 336 335 334 333 333 333 332 330 330 332 334 335 337 336 335 334 333 333 333 333 334 334 335 335 333 333 334 334 332 330 332 333 335 335 334 333 333 333 333 333 333 333 333 333 333 333 333 332 331 331 330 329 328 328 327 327 326 325
335 334 335 335 336 336 337 336 335 334 333 332 331 331 332 333 335 337 337 336 335 334 334 334 334 334 334 335 335 335 334 335 335 334 332 331 332 334 335 335 334 333 333 334 334 334 334 333 333 333 332 332 332 331 331 329 328 327 327 327 326 326 325
338 338 337 336 337 338 339 338 337 336 334 333 333 332 333 334 335 337 338 337 337 336 335 335 335 335 335 335 335 336 336 335 335 335 333 331 332 334 335 335 335 334 334 334 334 334 334 334 332 330 330 330 330 330 330 329 327 327 327 326 326 325 325
341 340 339 338 338 339 340 339 338 338 337 335 334 334 335 336 336 337 338 338 337 336 336 336 336 336 335 335 336 336 336 336 336 335 334 332 331 333 335 335 335 334 334 334 334 334 334 333 331 328 328 328 327 328 329 328 327 327 327 327 326 325 324
344 343 341 340 340 339 339 340 339 339 338 337 336 337 337 337 338 338 338 338 338 337 337 337 337 336 336 336 336 337 337 337 336 336 334 333 332 332 334 335 335 335 334 334 334 334 334 332 330 328 327 327 327 327 327 327 327 327 327 327 327 325 323
342 344 342 339 339 340 340 340 340 338 337 338 338 338 339 339 339 339 339 339 339 339 339 339 338 337 337 337 336 337 337 337 337 336 335 333 332 333 333 335 336 335 334 334 334 334 333 332 330 328 328 328 327 327 327 327 327 327 327 327 326 323 320
337 343 342 338 338 339 339 340 339 338 338 339 339 340 340 340 340 341 341 340 340 340 340 340 340 339 338 338 337 337 337 337 337 337 336 335 334 333 334 334 336 336 335 334 334 334 334 332 330 329 328 328 328 328 328 328 327 327 326 325 323 320 317
338 343 342 340 339 339 338 338 337 337 338 339 339 341 342 342 342 342 342 341 341 341 341 341 340 340 338 338 338 337 337 337 337 338 337 336 336 335 334 334 335 336 335 334 334 334 333 332 330 329 328 328 328 328 328 327 326 326 326 323 319 317 315
337 341 341 341 340 339 339 338 338 338 338 338 340 341 343 344 344 343 342 342 341 342 342 341 340 340 339 339 339 338 338 337 338 338 338 338 337 336 335 335 336 336 336 335 335 334 333 332 330 329 328 328 328 328 328 327 326 326 325 320 315 314 315
336 340 342 342 341 340 340 339 340 340 340 339 339 341 344 345 344 344 343 343 342 342 341 340 339 339 339 339 340 339 338 337 338 339 339 338 338 337 336 336 336 337 336 335 335 334 333 332 330 329 328 328 328 328 327 327 326 325 323 317 312 312 312
339 342 344 343 341 341 341 340 340 341 342 341 341 342 344 344 344 344 344 343 343 342 340 337 336 338 339 339 340 340 339 338 338 338 339 339 338 338 337 336 337 337 336 336 335 334 333 332 330 329 328 328 328 327 327 326 324 323 321 316 311 309 309
335 337 338 339 339 339 340 341 341 341 342 342 343 343 343 343 343 344 344 344 344 342 339 335 335 338 339 339 340 341 340 339 338 338 338 338 338 338 337 337 337 336 336 336 335 334 333 332 330 329 329 328 327 326 325 324 322 321 318 314 310 308 306
329 330 331 333 334 336 338 340 340 341 341 342 343 343 343 343 344 344 344 344 344 343 340 335 334 337 339 339 340 341 341 339 338 338 338 338 338 337 337 337 337 336 336 336 335 335 333 332 330 330 329 328 326 324 323 322 322 319 315 311 309 307 306
326 328 330 331 333 336 338 340 341 341 341 340 340 340 340 341 342 343 344 344 344 344 342 336 333 335 338 339 341 341 341 340 339 339 339 339 338 338 337 337 337 336 336 336 335 335 334 332 331 330 330 328 325 323 323 322 321 317 313 309 307 306 305
323 325 328 331 332 333 336 338 340 341 341 340 337 336 336 338 340 342 343 343 344 345 343 337 333 334 337 340 342 342 341 340 340 340 339 339 339 338 338 337 337 337 336 336 336 335 334 332 331 331 330 328 325 323 322 322 320 315 311 308 306 305 304
321 320 323 327 330 331 332 333 335 337 338 339 339 339 339 339 341 342 343 343 343 344 344 339 333 332 336 340 342 342 342 340 340 340 340 339 339 339 338 338 337 337 336 336 336 335 334 332 331 331 330 328 325 322 321 321 319 313 309 307 306 305 303
320 318 319 323 326 328 329 330 330 331 332 334 336 340 342 342 343 342 343 343 344 344 343 340 336 335 336 340 342 342 342 341 341 340 340 339 339 339 338 338 337 337 336 336 335 334 333 333 332 331 330 328 325 323 322 321 318 313 308 305 304 304 302
318 318 320 322 323 325 327 329 329 329 329 328 329 332 336 340 343 343 343 343 344 344 343 340 339 339 339 340 342 342 342 341 340 340 340 339 339 338 338 338 337 337 336 336 335 334 333 333 331 331 330 328 325 324 322 321 318 313 308 305 303 302 301
318 319 321 323 323 324 327 330 330 330 329 329 329 329 329 331 336 340 343 344 344 344 343 342 341 341 341 341 342 342 342 341 340 340 340 339 338 338 338 338 338 337 337 336 335 335 334 333 332 331 331 329 327 325 323 321 318 313 308 305 303 301 300
320 321 322 323 325 327 330 331 332 332 332 330 330 331 331 331 330 331 335 340 342 342 343 342 341 341 342 342 342 342 342 341 340 340 339 339 339 338 338 338 338 337 336 336 335 335 334 333 332 331 331 330 328 326 323 321 318 314 309 306 303 301 300
321 321 320 322 326 329 330 330 329 330 331 332 331 331 333 335 334 331 331 335 339 341 342 342 341 341 340 341 343 343 342 341 341 341 340 339 339 338 338 338 338 337 336 336 336 336 334 333 332 331 331 331 329 326 323 321 318 314 310 307 304 301 300
321 321 321 322 324 325 326 326 326 325 327 330 332 331 331 332 334 334 334 333 335 338 340 341 341 337 335 337 340 342 342 342 341 341 340 339 339 339 338 338 338 337 336 336 336 336 335 333 331 330 331 331 329 326 323 320 317 314 311 308 304 302 300
322 324 325 325 326 326 326 327 327 327 328 330 333 333 332 331 331 332 333 333 334 335 336 338 340 335 331 333 337 339 342 343 342 341 341 340 340 339 338 338 338 337 336 336 336 336 335 334 332 330 330 331 329 325 322 318 316 314 312 309 305 302 300
Wind_Speed
42 43 42 41 39 38 38 37 35 34 32 31 30 29 29 30 33 35 34 33 32 30 29 29 28 26 25 24 23 24 23 23 23 22 22 23 24 24 24 25 25 24 21 16 15 15 14 16 21 26 29 28 27 25 23 20 18 17 17 17 16 16 16
40 42 42 40 38 38 39 38 37 36 34 32 31 30 29 29 32 34 35 35 34 33 32 32 30 27 26 25 24 25 24 24 24 23 23 24 25 24 23 24 24 25 24 20 16 16 16 15 16 20 25 27 27 26 23 20 19 18 18 18 18 18 17
39 42 43 42 39 38 39 39 39 38 36 34 33 32 31 30 30 32 35 36 35 34 34 34 32 30 28 26 25 25 24 24 24 23 24 24 24 24 23 23 24 25 26 24 22 20 18 17 17 18 19 23 25 24 21 20 19 18 19 20 21 21 20
38 41 44 43 40 39 40 40 41 40 37 36 35 34 33 33 31 31 33 35 34 34 35 36 35 33 30 28 26 25 25 25 24 24 24 24 24 24 24 24 24 25 25 26 25 24 22 21 21 20 19 20 22 22 20 19 19 19 20 22 23 23 22
38 41 42 41 40 39 39 40 42 42 39 37 36 36 35 35 34 33 33 34 35 35 35 37 36 34 32 29 28 27 27 26 25 25 24 24 25 25 25 25 25 25 26 26 26 25 25 24 22 22 21 20 21 22 20 19 20 21 21 23 23 23 23
39 40 40 40 39 39 39 39 41 44 41 38 38 38 37 36 36 35 35 35 36 36 35 36 37 36 34 32 30 28 28 27 27 26 26 25 25 25 25 25 26 26 26 26 26 26 26 25 24 25 24 22 22 22 20 18 19 20 21 23 23 24 23
40 39 40 40 39 38 38 37 38 41 41 38 37 38 37 36 36 36 35 35 36 36 36 36 37 37 36 34 32 30 29 28 27 27 27 26 26 26 26 26 27 27 27 26 26 27 27 27 27 28 27 25 24 22 20 19 20 21 22 22 21 23 23
40 39 39 39 38 38 38 36 35 36 37 35 34 35 36 35 35 36 36 35 36 36 37 37 37 37 37 36 35 33 31 29 28 27 27 27 27 26 26 27 27 27 27 26 26 27 27 28 29 28 27 26 25 24 22 21 22 23 23 20 20 21 22
42 41 41 41 39 37 37 36 34 32 32 32 33 35 35 34 34 35 35 35 35 35 37 37 38 37 37 37 37 36 34 31 30 29 28 28 28 27 27 27 28 28 28 27 27 27 27 28 29 29 27 26 26 26 24 23 24 25 24 21 21 21 21
45 44 43 41 39 37 37 37 35 33 31 31 33 34 35 35 35 34 35 35 35 35 35 37 38 38 37 37 38 38 37 35 32 30 29 29 28 28 28 28 28 29 28 27 28 28 28 28 29 29 28 27 28 28 26 26 27 27 24 22 21 19 19
47 46 44 42 39 38 38 38 38 37 33 31 32 34 35 36 36 35 35 35 35 35 35 36 37 38 37 37 38 39 39 37 35 33 31 30 29 29 29 29 29 29 28 28 28 28 28 29 29 30 29 29 29 30 29 29 29 28 24 21 21 19 18
48 47 46 45 44 42 40 39 38 38 35 32 32 34 36 37 37 37 36 35 35 35 36 36 37 37 37 38 38 39 39 38 38 35 33 31 30 30 30 30 30 30 29 29 29 29 29 30 30 31 31 32 32 32 31 30 30 29 25 23 22 20 18
49 49 48 47 48 46 42 40 39 39 37 34 33 33 36 37 38 38 37 36 35 35 36 37 38 38 38 38 39 40 39 39 39 38 35 33 32 32 32 31 31 31 30 30 30 30 30 31 31 32 33 34 34 33 32 30 31 31 28 26 25 22 20
51 50 49 49 50 49 45 42 40 40 39 37 34 34 35 37 38 39 39 38 36 36 36 36 38 39 39 40 40 41 41 41 41 39 37 35 34 34 33 33 32 32 31 31 31 31 31 31 32 33 34 35 35 34 32 31 32 31 30 28 27 25 22
52 52 51 51 51 50 48 45 42 42 42 40 37 36 35 36 38 40 41 40 38 37 37 37 38 39 40 41 41 42 43 43 42 42 40 39 37 36 35 34 34 33 32 33 32 32 31 31 31 33 34 35 36 34 32 30 31 30 29 29 28 27 25
53 54 53 52 52 51 50 48 45 44 43 42 40 39 38 37 39 41 42 42 41 40 39 38 39 39 40 42 43 43 44 44 44 44 43 41 39 38 37 36 35 34 33 34 34 32 31 30 31 32 33 34 34 33 30 30 30 29 28 28 28 28 27
53 54 54 54 53 53 52 49 48 47 45 44 43 42 41 40 40 42 44 44 43 43 41 39 40 41 41 42 43 44 44 45 45 46 45 44 41 40 39 38 37 36 35 35 34 33 32 31 31 32 32 32 32 32 31 30 30 30 28 28 28 27 26
52 53 53 53 52 51 50 49 49 48 47 46 45 45 44 43 43 44 45 45 45 45 43 41 40 41 42 43 44 45 46 46 46 47 47 46 43 41 40 40 38 37 36 36 35 34 33 32 31 31 31 30 30 30 30 31 30 29 29 30 29 27 25
48 51 51 51 50 50 49 49 49 49 48 47 47 47 47 46 45 46 46 45 45 46 45 43 42 41 42 43 44 45 47 47 47 47 48 47 45 43 42 41 39 38 38 37 36 35 33 32 32 32 31 29 29 29 30 30 30 29 30 31 30 29 26
48 51 50 48 48 48 49 49 49 48 47 47 47 48 48 48 47 47 46 46 46 47 47 46 44 42 42 43 44 46 47 48 48 47 47 47 46 45 43 42 41 40 39 38 38 36 33 32 33 34 33 30 29 29 30 30 29 29 30 30 30 29 27
54 54 50 46 45 47 47 48 48 47 46 47 47 48 48 49 48 48 47 46 47 48 48 48 46 44 44 44 45 46 48 49 49 48 47 46 46 46 45 43 42 42 40 39 38 36 33 32 33 35 34 31 31 31 30 30 29 29 30 30 29 28 25
54 56 52 46 44 44 45 46 46 45 45 46 47 48 49 49 49 49 48 47 48 49 49 49 48 47 46 45 45 47 48 49 49 49 47 45 45 45 45 45 43 42 41 39 38 37 34 32 32 34 33 32 31 31 31 31 31 31 30 30 29 28 26
51 54 51 45 42 42 43 43 44 44 45 45 46 47 48 49 50 51 50 49 49 50 51 51 51 49 48 47 46 46 48 49 50 49 48 46 45 45 45 45 44 43 41 40 38 37 34 32 32 32 32 32 33 33 34 33 33 32 31 30 30 30 29
49 51 46 41 40 41 41 42 43 44 44 44 45 47 48 49 51 52 52 52 51 51 52 52 51 51 50 49 47 47 48 49 50 49 48 47 46 45 45 45 44 43 41 41 39 37 35 33 32 32 33 34 35 37 37 36 34 33 31 30 30 30 30
44 45 41 40 41 41 42 43 44 45 46 45 45 46 48 49 51 52 53 54 54 53 51 51 52 51 51 51 49 48 48 49 50 50 49 48 47 46 45 45 44 43 42 41 40 38 36 35 33 33 33 34 35 37 37 36 33 32 30 28 28 29 29
34 38 39 40 41 41 43 45 45 46 47 47 47 48 49 50 51 53 54 55 56 55 52 50 52 53 52 52 51 49 48 49 50 50 49 48 47 46 45 45 44 43 42 41 40 38 37 36 34 34 35 35 35 36 35 32 30 29 28 27 27 28 26
20 26 32 36 40 42 44 46 47 48 48 48 48 49 50 51 52 53 55 56 57 57 54 50 51 53 53 52 52 51 49 49 50 50 50 48 46 44 44 45 44 42 42 42 41 40 38 36 36 36 36 36 35 34 32 30 30 29 28 27 28 27 25
13 17 22 28 35 41 44 46 47 49 50 51 52 51 52 53 54 54 55 56 57 59 57 52 51 53 53 53 53 52 50 49 50 51 51 50 48 44 42 44 44 42 41 41 41 40 38 37 37 37 37 36 34 33 31 30 30 30 29 28 28 27 25
15 17 18 21 27 34 40 43 45 46 47 49 52 54 54 55 55 55 56 56 57 60 59 54 51 53 53 53 53 52 51 50 51 52 52 52 50 46 42 43 44 42 40 40 40 39 38 38 37 37 36 35 34 34 32 30 29 29 29 29 28 27 25
21 20 21 21 23 26 31 36 40 43 45 46 48 52 55 56 55 55 56 58 58 59 60 56 52 53 53 54 54 53 52 51 51 53 53 53 52 49 45 44 45 43 40 39 39 38 37 37 37 36 35 35 35 35 33 31 30 29 29 29 29 28 26
27 25 25 25 25 25 27 30 33 38 44 48 49 49 51 53 55 56 57 58 59 59 59 57 54 53 54 54 55 54 53 52 52 53 54 53 52 51 48 45 45 45 42 38 36 37 37 37 36 36 35 35 35 36 35 33 31 30 30 30 30 29 27
29 28 27 28 28 27 27 29 31 34 40 46 51 51 49 47 50 53 56 57 58 58 57 56 54 54 54 55 55 54 53 52 53 54 54 54 53 52 50 48 47 47 44 38 35 35 36 37 36 36 35 35 37 37 36 34 32 31 31 32 30 29 28
28 28 27 27 28 28 28 28 30 32 35 40 45 50 51 49 47 49 51 54 55 56 55 54 54 54 55 55 55 54 52 52 54 55 55 55 54 53 52 51 50 49 47 41 35 33 34 35 36 36 36 36 38 37 35 34 33 32 31 31 30 29 29
26 27 27 27 27 27 26 26 28 31 33 35 39 45 50 52 52 51 51 51 52 55 55 54 53 54 54 54 55 54 52 53 55 56 55 55 55 54 54 54 53 51 49 43 37 34 33 33 34 36 38 37 36 35 33 33 33 33 32 32 30 30 30
27 28 28 29 28 25 24 25 27 29 31 33 37 42 45 49 51 52 52 51 50 54 56 54 53 52 52 53 55 55 54 54 55 56 55 56 56 57 56 55 54 52 49 43 39 36 34 32 33 36 39 37 35 33 32 32 32 34 34 33 32 32 32
28 28 28 29 30 29 29 29 30 30 30 32 35 40 43 45 47 49 51 52 51 53 56 57 55 53 51 52 54 55 55 55 55 55 57 58 58 58 57 55 54 53 49 43 40 39 37 34 34 36 39 39 36 33 32 32 33 35 35 34 34 35 34
27 26 26 28 30 31 31 31 30 29 29 30 33 38 41 43 46 47 49 52 52 50 51 53 53 53 53 52 52 53 54 55 55 56 57 59 59 58 57 56 55 53 49 44 41 40 39 37 36 36 39 41 37 34 34 34 35 36 36 36 37 37 36
Wind_Direction
226 227 226 225 225 223 223 224 220 217 219 225 225 222 220 217 214 213 214 216 219 219 219 222 225 223 219 219 221 224 228 232 234 239 241 239 238 237 234 231 231 234 239 244 240 234 236 236 231 232 235 239 243 249 255 260 263 267 271 274 275 276 280
229 229 226 224 224 223 223 224 222 218 217 221 225 225 223 220 216 215 214 216 220 222 222 224 227 227 222 221 222 222 225 229 233 237 238 239 241 243 240 236 234 233 234 237 236 233 237 241 238 235 236 237 241 248 252 254 257 261 265 269 271 271 273
226 227 226 225 225 224 223 224 222 219 216 218 222 225 226 224 221 217 216 217 220 223 223 224 227 228 225 223 224 226 228 229 232 236 238 239 240 243 244 241 238 235 232 232 231 230 232 234 236 239 240 239 244 253 257 257 259 260 262 265 267 266 266
224 225 225 224 224 224 223 223 222 220 217 217 219 223 226 227 225 222 220 219 220 223 224 224 226 229 228 225 224 227 230 232 233 236 239 240 239 240 241 240 240 239 237 237 237 236 234 235 236 239 242 244 250 259 264 266 268 265 262 262 263 263 264
223 224 225 224 223 222 221 222 222 219 218 217 219 222 225 226 227 226 224 223 221 222 223 223 225 229 231 228 226 226 229 232 234 234 237 239 239 239 239 239 240 241 241 243 245 245 243 244 243 244 246 248 251 259 266 268 266 264 263 262 262 262 262
222 225 226 225 223 221 219 220 220 218 218 217 218 222 224 225 226 227 226 224 223 222 222 223 225 228 230 231 229 228 229 232 234 235 236 238 240 241 242 242 241 241 241 242 244 246 246 246 245 247 250 252 254 260 265 262 261 263 264 262 262 261 261
220 223 226 226 223 221 219 218 219 218 219 220 220 222 223 224 226 227 227 226 225 224 223 224 225 227 229 232 232 231 231 233 236 238 239 240 241 242 243 244 243 243 243 242 241 243 244 243 243 246 251 254 255 258 257 253 254 258 258 260 263 261 261
220 221 223 225 224 222 220 219 220 221 222 223 224 225 225 226 227 228 228 228 227 227 226 225 225 226 228 231 232 233 234 235 236 238 240 241 241 242 242 243 243 244 244 242 241 241 241 241 243 246 249 251 252 253 252 249 247 250 253 259 262 260 259
220 220 221 223 223 223 221 221 222 224 226 227 226 226 227 227 229 229 229 228 228 229 228 226 225 226 228 230 232 233 234 236 236 238 240 241 242 242 243 243 243 244 244 243 242 241 241 241 241 242 243 245 249 251 251 249 248 251 254 256 256 256 256
221 220 220 221 222 223 223 222 224 225 227 229 228 227 228 229 229 230 230 230 229 229 229 228 227 227 229 231 232 232 234 235 237 238 239 241 243 243 243 243 243 244 244 242 241 241 240 239 239 238 239 241 245 248 250 252 255 259 261 260 258 258 256
222 221 220 220 221 223 223 223 224 226 227 230 230 229 228 229 230 230 230 231 231 231 230 230 230 230 231 233 233 233 233 235 237 238 239 241 243 244 243 244 243 244 244 242 241 242 241 239 238 238 239 241 243 245 249 255 261 265 267 264 262 262 260
222 222 222 221 221 222 224 224 224 226 227 229 231 231 230 229 230 229 230 230 231 231 232 232 231 232 233 235 235 235 233 233 236 238 239 241 243 244 244 244 244 244 243 242 241 242 241 239 238 238 240 242 243 244 247 253 260 266 269 267 267 267 266
223 223 223 223 222 222 224 225 225 226 227 229 231 232 232 231 231 231 230 230 230 231 232 233 233 233 234 236 237 238 236 233 234 237 238 240 242 244 244 245 245 245 244 242 241 240 240 239 238 239 240 241 243 244 246 250 255 262 267 268 269 269 269
224 224 225 225 224 224 224 226 227 228 229 231 233 234 234 233 233 233 233 232 232 231 231 232 233 233 235 236 238 239 238 235 234 236 238 239 241 243 244 245 245 246 244 243 242 241 240 239 239 240 240 241 243 243 244 247 251 258 263 265 266 266 266
226 225 226 227 227 226 226 227 228 229 230 232 234 235 235 235 235 236 236 235 234 233 233 233 233 233 235 236 238 239 239 237 235 235 237 238 239 241 244 244 245 245 244 244 243 243 243 242 242 242 242 242 242 243 244 245 248 254 258 260 261 261 261
227 226 226 226 227 228 228 228 229 230 232 234 235 236 236 236 236 237 238 237 236 235 234 234 234 234 235 237 238 238 238 238 237 237 236 236 237 240 243 244 244 244 244 244 244 244 244 243 244 245 245 244 244 244 243 242 244 249 254 257 258 257 259
226 225 226 227 227 228 228 229 229 230 233 235 236 236 236 235 236 238 239 239 238 236 236 236 236 236 237 239 240 240 239 239 240 239 239 237 236 238 241 243 244 245 244 244 245 244 244 244 246 245 244 243 244 244 243 240 241 246 251 255 256 258 261
227 225 226 228 229 229 230 231 231 232 233 235 236 237 236 235 236 238 239 239 239 238 237 237 238 239 239 240 241 242 241 241 242 242 242 240 237 237 240 243 245 245 245 245 245 245 245 247 246 243 241 240 240 240 239 238 240 246 250 253 256 257 258
230 228 228 229 230 231 232 232 233 234 236 237 237 237 236 236 236 237 238 239 240 240 239 238 239 241 241 241 242 243 243 243 243 244 244 242 239 236 239 243 245 245 246 247 247 246 248 249 246 242 239 238 237 237 237 238 241 246 248 251 254 255 254
237 233 231 232 233 233 233 234 234 236 238 238 237 237 237 237 237 238 239 240 241 241 240 239 240 242 243 243 243 243 243 243 243 244 244 243 241 238 238 241 243 245 246 248 249 249 250 251 247 242 240 238 237 238 239 241 243 244 246 249 251 251 250
242 237 235 235 235 235 236 236 237 238 238 238 238 238 238 238 238 238 239 240 242 242 241 240 241 242 244 244 244 244 243 242 242 243 243 243 242 241 239 240 242 245 246 248 250 251 253 252 248 243 241 240 239 240 242 244 245 246 248 250 249 247 245
243 238 235 235 235 236 237 238 239 240 239 239 239 239 238 238 238 239 239 240 242 242 241 241 242 244 244 244 245 244 242 242 242 242 242 242 243 242 241 240 241 244 246 248 250 252 254 253 250 246 244 242 241 242 243 245 247 249 251 250 246 241 239
242 236 233 235 237 239 240 240 241 241 240 240 240 238 238 237 238 238 239 240 241 241 241 243 245 246 246 246 246 245 243 242 241 241 241 242 243 243 243 241 241 242 245 247 248 251 252 252 250 249 248 248 247 246 246 248 250 251 250 246 242 238 236
242 236 236 239 242 243 243 243 242 241 241 241 241 239 237 236 237 238 240 240 240 241 243 245 247 247 246 247 246 245 244 242 241 240 240 242 244 244 244 243 242 241 243 244 245 248 249 249 249 248 248 249 251 251 251 252 252 250 246 241 239 238 238
248 245 246 248 248 247 247 245 244 242 241 240 241 239 237 237 238 238 239 239 240 241 243 245 247 247 247 247 246 245 245 243 241 240 240 241 243 245 246 244 243 242 241 242 243 245 247 247 247 247 248 250 252 251 250 248 248 247 244 241 238 237 240
255 256 257 256 254 253 250 247 246 245 243 242 240 238 237 238 238 238 239 239 239 241 242 244 246 247 247 248 246 245 244 244 243 242 241 241 242 245 246 244 243 242 241 242 242 244 245 246 246 246 249 252 250 246 244 244 245 246 246 244 243 241 243
261 261 261 260 258 256 253 251 250 248 247 245 241 238 237 237 237 238 239 239 239 240 241 243 245 246 247 248 246 244 244 244 244 244 243 243 243 245 246 245 244 242 241 242 242 244 245 246 246 247 251 252 247 240 241 244 245 243 241 241 243 244 246
276 271 267 263 259 255 252 251 250 248 247 246 243 241 240 238 237 238 239 238 238 239 241 243 245 246 247 247 246 244 243 243 243 244 244 244 244 245 246 247 246 243 242 242 243 245 247 247 248 250 253 254 247 241 242 244 243 241 239 239 240 242 244
280 281 277 271 265 260 255 251 249 247 246 245 245 243 241 239 238 238 238 237 237 238 241 243 244 246 247 247 245 243 242 242 243 243 244 244 244 243 245 248 248 246 245 245 245 247 248 249 250 252 255 255 249 243 243 244 242 239 238 239 241 242 244
273 281 279 274 270 267 263 259 256 252 250 248 246 242 239 238 238 238 237 236 236 237 239 242 245 246 247 246 244 242 241 241 241 242 243 243 244 243 243 246 248 247 246 246 247 246 247 248 250 252 255 255 250 245 244 242 239 236 235 236 239 241 242
268 278 280 275 271 270 269 266 262 257 254 252 250 246 242 239 238 239 238 236 236 236 239 242 245 245 246 246 244 242 241 241 240 241 241 242 243 243 242 245 248 248 247 246 247 246 245 247 249 250 253 255 251 246 244 241 237 234 231 232 234 236 238
265 275 278 274 272 273 274 272 268 260 256 254 253 252 249 244 240 239 239 238 237 237 239 242 244 244 245 246 245 243 242 240 239 239 239 239 240 241 241 243 246 248 247 246 246 245 245 246 247 249 253 255 252 248 245 242 239 235 232 231 232 233 235
264 272 275 273 270 270 273 275 273 267 261 258 257 256 255 252 248 244 242 240 238 237 239 241 243 244 245 245 245 244 241 239 239 238 238 237 238 239 240 241 243 245 244 243 243 245 245 246 247 249 252 255 255 252 248 244 241 238 236 234 233 234 234
265 268 271 272 269 267 271 275 276 275 271 266 263 260 256 253 252 250 248 245 241 240 241 241 242 244 245 245 246 244 241 241 240 238 237 237 237 239 240 241 241 241 240 239 239 242 244 245 247 250 252 256 260 258 252 246 243 241 238 236 235 234 233
265 266 266 268 268 268 273 277 278 278 277 272 268 265 260 256 253 251 250 248 245 243 243 243 243 244 245 246 246 244 243 243 243 240 237 236 238 240 242 242 242 241 240 239 240 242 243 242 245 250 253 256 260 258 251 246 244 242 239 236 234 232 231
266 267 266 266 267 265 266 272 276 277 275 273 269 267 265 260 255 253 252 251 249 247 245 243 242 244 245 245 245 244 244 244 244 241 238 238 240 242 241 242 243 242 241 241 243 244 242 240 242 249 253 254 255 253 248 244 241 240 238 236 234 231 231
267 268 265 264 264 262 263 269 274 274 271 269 265 264 263 259 254 253 254 252 250 249 245 240 240 244 247 247 245 243 243 244 244 243 241 241 241 242 242 243 244 244 242 242 245 245 243 242 243 247 252 252 250 248 244 241 239 238 238 236 234 232 231